EW5586 Weather Reports


Display with metric or nautical units.
time (UTC)temp
F
wind
direction
speed
MPH
gust
MPH
rain 1hr
in
rain 24hr
in
rain mn
in
humidity
%
barometer
mb
20260504050336 47 209 6.0 9.0 0.00 0.00 0.00 85 1006.9
20260504045830 48 196 5.0 9.0 0.00 0.00 0.00 83 1006.9
20260504045324 48 211 4.0 8.0 0.00 0.00 0.00 81 1007.0
20260504044312 48 240 4.0 10.0 0.00 0.00 0.00 80 1007.1
20260504042755 48 209 5.0 11.0 0.00 0.00 0.00 79 1007.0
20260504042248 47 229 5.0 11.0 0.00 0.00 0.00 79 1007.0
20260504041742 47 209 5.0 11.0 0.00 0.00 0.00 79 1007.0
20260504041236 48 225 5.0 8.0 0.00 0.00 0.00 78 1007.0
20260504040730 48 0 5.0 9.0 0.00 0.00 0.00 78 1007.2
20260504040224 48 234 6.0 13.0 0.00 0.00 0.00 78 1007.2
20260504035718 48 217 7.0 16.0 0.00 0.00 0.00 77 1007.1
20260504035212 48 215 6.0 16.0 0.00 0.00 0.00 77 1007.0
20260504034706 48 211 4.0 11.0 0.00 0.00 0.00 77 1007.0
20260504034201 48 217 6.0 14.0 0.00 0.00 0.00 76 1007.0
20260504033148 47 216 5.0 11.0 0.00 0.00 0.00 76 1007.1
20260504032642 47 225 9.0 15.0 0.00 0.00 0.00 77 1007.0
20260504031630 48 180 9.0 14.0 0.00 0.00 0.00 78 1007.1
20260504031124 48 237 8.0 13.0 0.00 0.00 0.00 75 1007.1
20260504030618 47 188 8.0 14.0 0.00 0.00 0.00 76 1007.1
20260504025606 47 211 9.0 15.0 0.00 0.00 0.00 80 1007.2
20260504025100 47 221 8.0 13.0 0.00 0.00 0.00 80 1007.3
20260504024555 47 234 8.0 12.0 0.00 0.00 0.00 80 1007.3
20260504024048 47 217 8.0 12.0 0.00 0.00 0.00 79 1007.4
20260504023544 47 228 8.0 12.0 0.00 0.00 0.00 78 1007.4
20260504023043 47 217 8.0 12.0 0.00 0.00 0.00 76 1007.5
20260504022024 47 209 8.0 13.0 0.00 0.00 0.00 77 1007.6
20260504021518 47 205 7.0 13.0 0.00 0.00 0.00 78 1007.5
20260504021012 46 213 8.0 11.0 0.00 0.00 0.00 80 1007.6
20260504020506 47 220 8.0 11.0 0.00 0.00 0.00 81 1007.6
20260504020000 47 208 8.0 11.0 0.00 0.00 0.00 80 1007.6
20260504014948 47 0 10.0 14.0 0.00 0.00 0.00 78 1007.6
20260504014444 47 216 10.0 15.0 0.00 0.00 0.00 77 1007.6
20260504013945 47 218 10.0 15.0 0.00 0.00 0.00 76 1007.6
20260504013444 47 223 10.0 15.0 0.00 0.00 0.00 75 1007.6
20260504012945 48 0 10.0 15.0 0.00 0.00 0.00 73 1007.7
20260504012444 48 221 9.0 14.0 0.00 0.00 0.00 72 1007.8
20260504011944 48 226 8.0 13.0 0.00 0.00 0.00 70 1007.8
20260504010944 49 216 8.0 13.0 0.00 0.00 0.00 69 1007.7
20260504010444 49 220 6.0 12.0 0.00 0.00 0.00 66 1007.6
20260504005944 49 202 6.0 11.0 0.00 0.00 0.00 60 1007.6
20260504005444 49 216 7.0 12.0 0.00 0.00 0.00 62 1007.6
20260504003944 48 0 11.0 17.0 0.00 0.00 0.00 68 1007.5
20260504003445 49 213 11.0 16.0 0.00 0.00 0.00 68 1007.6
20260504002444 50 194 11.0 16.0 0.00 0.00 0.00 57 1007.5
20260504001938 50 211 9.0 16.0 0.00 0.00 0.00 56 1007.5
20260504001433 51 236 9.0 17.0 0.00 0.00 0.00 51 1007.4
20260504000933 51 216 9.0 17.0 0.00 0.00 0.00 49 1007.4
20260503235932 51 219 9.0 20.0 0.00 0.00 0.00 50 1007.4
20260503234933 51 231 10.0 17.0 0.00 0.00 0.00 50 1007.4
20260503234434 51 216 9.0 17.0 0.00 0.00 0.00 49 1007.3
20260503233932 51 211 10.0 19.0 0.00 0.00 0.00 49 1007.3
20260503233432 52 198 10.0 19.0 0.00 0.00 0.00 47 1007.4
20260503232932 52 219 9.0 19.0 0.00 0.00 0.00 45 1007.4
20260503232432 52 0 10.0 19.0 0.00 0.00 0.00 45 1007.4
20260503231932 52 228 8.0 19.0 0.00 0.00 0.00 45 1007.3
20260503231432 52 238 8.0 19.0 0.00 0.00 0.00 45 1007.4
20260503230929 52 235 11.0 22.0 0.00 0.00 0.00 48 1007.4
20260503230428 52 205 10.0 22.0 0.00 0.00 0.00 45 1007.3
20260503225928 52 0 9.0 18.0 0.00 0.00 0.00 46 1007.4
20260503225428 52 239 9.0 20.0 0.00 0.00 0.00 46 1007.3
20260503224430 50 230 12.0 20.0 0.00 0.00 0.00 55 1007.3
20260503222931 49 221 13.0 18.0 0.00 0.00 0.00 65 1007.4
20260503222424 49 225 13.0 19.0 0.00 0.00 0.00 67 1007.5
20260503221924 49 0 12.0 19.0 0.00 0.00 0.00 69 1007.6
20260503220924 49 199 13.0 17.0 0.00 0.00 0.00 67 1007.6
20260503220424 49 203 14.0 18.0 0.00 0.00 0.00 65 1007.6
20260503215924 49 204 15.0 21.0 0.00 0.00 0.00 66 1007.7
20260503215424 49 207 15.0 21.0 0.00 0.00 0.00 65 1007.7
20260503214924 49 202 14.0 20.0 0.00 0.00 0.00 67 1007.7
20260503214426 49 190 14.0 20.0 0.00 0.00 0.00 68 1007.7
20260503213922 49 0 14.0 20.0 0.00 0.00 0.00 67 1007.7
20260503212924 49 194 15.0 20.0 0.00 0.00 0.00 68 1007.8
20260503212422 49 192 15.0 19.0 0.00 0.00 0.00 66 1007.8
20260503211922 49 211 16.0 20.0 0.00 0.00 0.00 67 1007.8
20260503211423 49 217 17.0 21.0 0.00 0.00 0.00 65 1007.8
20260503210923 49 0 15.0 21.0 0.00 0.00 0.00 65 1007.8
20260503210422 49 219 14.0 20.0 0.00 0.00 0.00 66 1007.9
20260503205923 49 196 14.0 18.0 0.00 0.00 0.00 66 1008.0
20260503204921 49 222 15.0 21.0 0.00 0.00 0.00 66 1008.1
20260503204415 49 198 14.0 21.0 0.00 0.00 0.00 65 1008.2
20260503203402 49 0 14.0 20.0 0.00 0.00 0.00 65 1008.2
20260503202856 49 204 15.0 22.0 0.00 0.00 0.00 64 1008.3
20260503202354 49 191 15.0 22.0 0.00 0.00 0.00 63 1008.3
20260503201852 49 176 15.0 20.0 0.00 0.00 0.00 67 1008.4
20260503201351 49 197 15.0 20.0 0.00 0.00 0.00 64 1008.4
20260503200853 49 0 15.0 19.0 0.00 0.00 0.00 63 1008.4
20260503200351 49 181 17.0 23.0 0.00 0.00 0.00 63 1008.4
20260503195850 49 209 18.0 24.0 0.00 0.00 0.00 61 1008.5
20260503195351 49 234 17.0 24.0 0.00 0.00 0.00 60 1008.5
20260503194850 49 187 16.0 22.0 0.00 0.00 0.00 60 1008.6
20260503193849 49 196 17.0 24.0 0.00 0.00 0.00 61 1008.9
20260503193350 49 178 18.0 24.0 0.00 0.00 0.00 61 1008.9
20260503192850 49 202 19.0 25.0 0.00 0.00 0.00 59 1008.9
20260503191849 49 197 19.0 25.0 0.00 0.00 0.00 61 1009.1
20260503191342 49 175 18.0 24.0 0.00 0.00 0.00 61 1009.1
20260503190837 49 203 18.0 25.0 0.00 0.00 0.00 58 1009.0
20260503190329 49 205 19.0 25.0 0.00 0.00 0.00 61 1009.1
20260503185823 48 0 18.0 23.0 0.00 0.00 0.00 61 1009.1
20260503185318 49 209 16.0 23.0 0.00 0.00 0.00 57 1009.1
20260503184811 49 0 15.0 23.0 0.00 0.00 0.00 59 1009.1
20260503184306 49 200 13.0 20.0 0.00 0.00 0.00 57 1009.1
20260503183759 49 0 12.0 18.0 0.00 0.00 0.00 62 1009.1
20260503183253 49 0 12.0 22.0 0.00 0.00 0.00 64 1009.2
20260503182747 48 184 14.0 22.0 0.00 0.00 0.00 65 1009.3
20260503182241 48 208 14.0 20.0 0.00 0.00 0.00 64 1009.3
20260503181735 48 219 15.0 21.0 0.00 0.00 0.00 63 1009.4
20260503181229 49 190 16.0 23.0 0.00 0.00 0.00 56 1009.3
20260503180723 49 213 16.0 23.0 0.00 0.00 0.00 55 1009.3
20260503180224 49 220 13.0 21.0 0.00 0.00 0.00 62 1009.3
20260503175724 49 196 12.0 19.0 0.00 0.00 0.00 62 1009.4
20260503175227 50 173 12.0 20.0 0.00 0.00 0.00 60 1009.4
20260503174224 49 192 14.0 21.0 0.00 0.00 0.00 62 1009.7
20260503173721 49 0 14.0 21.0 0.00 0.00 0.00 55 1009.5
20260503173222 49 208 15.0 24.0 0.00 0.00 0.00 56 1009.7
20260503172720 48 199 15.0 24.0 0.00 0.00 0.00 56 1009.7
20260503172221 48 213 15.0 25.0 0.00 0.00 0.00 60 1009.7
20260503171720 49 193 13.0 25.0 0.00 0.00 0.00 60 1009.7
20260503171220 49 205 13.0 21.0 0.00 0.00 0.00 63 1009.7
20260503170719 49 233 14.0 21.0 0.00 0.00 0.00 64 1009.8
20260503170218 49 169 14.0 21.0 0.00 0.00 0.00 61 1009.9
20260503160144 52 217 5.0 12.0 0.00 0.00 0.00 42 1010.7
20260503150546 0 0.0 0.0 0.00 0.00 0.00 1011.4
20260503131151 0 0.0 0.0 0.00 0.00 0.00 1012.1
20260503130644 0 0.0 0.0 0.00 0.00 0.00 1012.1
20260503110129 0 0.0 0.0 0.00 0.00 0.00 1011.7
20260503100225 0 0.0 0.0 0.00 0.00 0.00 1011.5
20260503081315 39 279 0.0 0.0 0.00 0.00 0.00 85 1011.9
20260503080815 39 279 0.0 0.0 0.00 0.00 0.00 85 1011.9
20260503080315 39 279 0.0 0.0 0.00 0.00 0.00 85 1011.9
20260503072312 39 279 0.0 0.0 0.00 0.00 0.00 85 1011.8
20260503071811 39 279 0.0 0.0 0.00 0.00 0.00 85 1011.9
20260503071311 39 279 0.0 0.0 0.00 0.00 0.00 85 1011.8
20260503070813 40 279 0.0 0.0 0.00 0.00 0.00 85 1011.8
20260503070308 40 279 0.0 0.0 0.00 0.00 0.00 85 1011.8
20260503060256 40 279 0.0 0.0 0.00 0.00 0.00 85 1012.0
20260503054251 40 279 0.0 0.0 0.00 0.00 0.00 85 1012.0
20260503053743 40 279 0.0 0.0 0.00 0.00 0.00 85 1012.0
20260503053236 40 279 0.0 0.0 0.00 0.00 0.00 85 1012.0
20260503052730 40 279 0.0 0.0 0.00 0.00 0.00 85 1012.1
20260503052224 40 279 0.0 0.0 0.00 0.00 0.00 85 1012.1
20260503051718 40 279 0.0 0.0 0.00 0.00 0.00 84 1012.2
20260503051213 41 279 0.0 0.0 0.00 0.00 0.00 84 1012.2
20260503050706 41 279 0.0 0.0 0.00 0.00 0.00 84 1012.2